全球星 M050星 (GLOBALSTAR M050)

导读

GLOBALSTAR M050是全球星(GlobalStar)系统的第一代低轨通信卫星,1999年9月22日发射,归属美国全球星公司运营。该卫星基于劳拉公司LS-400平台建造,属于全球星第一代星座组网卫星,运行在倾角约52°的近地轨道,为系统提供数字语音、数据、传真及全球漫游移动通信服务,设计寿命7.5年,是全球首个低轨全球移动通信星座的重要组成部分。

基本信息
目录编号:
25908
目录名称:
GLOBALSTAR M050
国际标识:
1999-049B
轨道中心:
EARTH
卫星名称:
全球星 M050星
卫星全名:
全球星 M050星 (GLOBALSTAR M050)
卫星状态:
在轨 (已飞行9764 天)
发射日期:
1999-09-22 UTC
国别 :
(GLOB)
星等 :
--
轨道信息
数据来源 国际轨道数据 AOE轨道数据
星历时间 2026-06-16T14:54:13+0800
9小时前
查看轨道信息
2026-06-16T14:00:00+0800
10小时前
查看轨道信息
半长轴 8025.741km 8025.741km
偏心率 0.0008792 0.0008908
轨道倾角 51.996° 51.995°
近地点辐角 37.331° 36.817°
升交点赤经 197.391° 197.494°
平近点角 45.083° 241.842°
近地点 1640.547km 1640.454km
远地点 1654.661km 1654.754km
周期 119.258分钟 119.258分钟
每日圈数 12.074666 12.074666
详细信息
固有亮度:
5
最大亮度:
7.9
平衡模式:
三轴稳定
覆盖范围:
全球
运营商:
全球星公司
运营商所在国:
美国
使用方式:
暂无
卫星简介
全球星星座由48颗卫星加8颗备份星组成。这些卫星分布在8个倾角为52度的圆形轨道平面上,每个轨道平面6颗卫星,另有1 颗备用星。轨道高度约为1414km,传输时延和处理时延小于300ms,整个系统的覆盖区为南北纬70度以内的地区。该卫星已退役。
2D轨道图
3D轨道图
轨道高度分析图
轨道倾角分析图
轨道综合分析图
查看轨道综合分析图